CDT,Max TemperatureF,Mean TemperatureF,Min TemperatureF,Max Dew PointF,MeanDew PointF,Min DewpointF,Max Humidity, Mean Humidity, Min Humidity, Max Sea Level PressureIn, Mean Sea Level PressureIn, Min Sea Level PressureIn, Max VisibilityMiles, Mean VisibilityMiles, Min VisibilityMiles, Max Wind SpeedMPH, Mean Wind SpeedMPH, Max Gust SpeedMPH,PrecipitationIn, CloudCover, Events, WindDirDegrees
2013-8-1,84,78,71,75,71,68,100,83,58,30.10,30.04,30.00,10,9,4,10,6,,0.00,3,,35
2013-8-2,84,75,66,73,71,66,100,84,62,30.04,29.99,29.94,10,9,1,13,4,17,0.00,0,,161
2013-8-3,80,76,71,73,72,70,100,87,70,30.09,30.01,29.91,10,10,4,14,6,,0.57,2,Thunderstorm,194
2013-8-4,82,76,69,73,72,70,100,88,70,30.14,30.10,30.06,10,10,10,10,4,,0.11,3,,30
2013-8-5,78,74,69,77,72,68,100,95,88,30.09,29.99,29.88,10,7,3,13,5,,0.55,7,Thunderstorm,101
2013-8-6,80,76,71,77,73,70,100,94,83,30.01,29.91,29.86,10,7,2,14,6,16,0.39,4,Thunderstorm,97
2013-8-7,84,78,73,77,74,70,100,89,70,29.99,29.91,29.83,10,8,2,16,7,23,0.02,2,,122
2013-8-8,87,80,73,79,75,72,100,90,70,29.98,29.91,29.86,10,10,7,14,4,20,0.11,2,Thunderstorm,33
2013-8-9,84,78,71,77,73,70,100,89,74,30.06,29.98,29.91,10,10,6,16,5,,0.37,2,Thunderstorm,58
2013-8-10,78,74,69,75,73,70,100,93,83,30.13,30.07,30.00,10,9,2,25,7,38,1.86,7,Thunderstorm,21
2013-8-11,82,76,71,75,73,72,100,93,74,30.15,30.09,30.04,10,8,3,8,3,,0.15,3,Thunderstorm,55
2013-8-12,87,79,71,79,74,70,100,92,74,30.06,29.99,29.93,10,10,6,41,5,54,0.39,4,Thunderstorm,202
2013-8-13,82,76,69,73,71,66,100,86,65,30.04,29.99,29.95,10,10,3,10,4,,0.01,1,,21
2013-8-14,73,60,48,66,58,52,100,75,53,30.16,30.11,30.04,10,10,3,16,10,22,0.00,0,,32
2013-8-15,75,60,46,63,57,52,100,72,53,30.13,30.09,30.05,10,10,8,9,6,,0.00,1,,18
2013-8-16,77,67,57,63,60,55,94,77,61,30.10,30.07,30.04,10,10,5,14,7,18,0.00,1,,10
2013-8-17,78,71,64,68,64,61,94,80,65,30.12,30.08,30.05,10,10,7,15,7,21,0.00,2,,29
2013-8-18,78,72,66,68,66,64,100,85,61,30.16,30.11,30.07,10,9,4,9,5,,0.00,4,,27
2013-8-19,84,73,62,72,67,63,100,81,58,30.13,30.08,30.02,10,9,3,7,4,,0.00,1,,30
2013-8-20,87,68,48,72,68,59,100,78,49,30.11,30.07,30.03,10,8,2,7,3,,0.00,0,,44
2013-8-21,86,70,53,75,70,63,100,86,58,30.15,30.09,30.05,10,9,3,8,2,,0.00,1,,83
2013-8-22,87,76,64,75,71,64,100,87,58,30.14,30.07,30.01,10,9,2,7,3,,0.00,1,,165
2013-8-23,87,78,68,75,72,68,100,84,58,30.09,30.05,29.99,10,8,2,10,4,,0.00,1,,36
2013-8-24,89,78,66,75,72,66,100,82,59,30.17,30.13,30.07,10,8,2,12,6,,0.00,0,,47
2013-8-25,89,80,71,77,73,70,100,85,59,30.24,30.20,30.16,10,8,3,20,5,,0.20,2,,109
2013-8-26,87,78,69,73,72,70,100,83,58,30.25,30.19,30.12,10,8,1,12,5,,0.00,1,,172
2013-8-27,89,79,69,72,70,66,94,77,52,30.15,30.10,30.03,10,10,3,10,5,,0.00,1,,192
2013-8-28,91,80,69,73,70,66,94,73,43,30.09,30.04,30.00,10,10,5,9,4,,0.00,0,,190
2013-8-29,93,82,71,75,72,70,100,72,46,30.07,30.02,29.97,10,10,5,8,4,,0.00,0,,246
2013-8-30,93,82,71,75,73,70,94,75,52,30.01,29.95,29.88,10,10,7,9,3,,0.00,0,,194
2013-8-31,96,84,73,75,73,72,94,72,44,29.91,29.86,29.79,10,10,7,13,6,,0.00,0,,204